| time (UTC) | temp F | wind direction | speed knots | gust knots | rain 1hr in | rain 24hr in | rain mn in | humidity % | barometer mb |
| 20260831091548 | 74 | 251 | 0.0 | 0.0 | 0.00 | 0.00 | 0.00 | 85 | 1008.8 |
| 20260831084542 | 74 | 251 | 0.0 | 0.0 | 0.00 | 0.00 | 0.00 | 85 | 1008.9 |
| 20260831083042 | 74 | 251 | 0.0 | 0.0 | 0.00 | 0.00 | 0.00 | 86 | 1009.0 |
| 20260831081541 | 74 | 251 | 0.0 | 0.0 | 0.00 | 0.00 | 0.00 | 86 | 1008.9 |
| 20260831080039 | 74 | 251 | 0.0 | 0.0 | 0.00 | 0.00 | 0.00 | 86 | 1009.0 |
| 20260831074538 | 74 | 251 | 0.0 | 0.0 | 0.00 | 0.00 | 0.00 | 86 | 1009.0 |
| 20260831073038 | 74 | 251 | 0.0 | 0.0 | 0.00 | 0.00 | 0.00 | 87 | 1009.0 |
| 20260831071537 | 74 | 251 | 0.0 | 0.0 | 0.00 | 0.00 | 0.00 | 87 | 1009.0 |
| 20260831070037 | 74 | 251 | 0.0 | 0.0 | 0.00 | 0.00 | 0.00 | 87 | 1009.0 |
| 20260831064533 | 74 | 251 | 0.0 | 0.0 | 0.00 | 0.00 | 0.00 | 88 | 1009.1 |
| 20260831063033 | 73 | 251 | 0.0 | 0.0 | 0.00 | 0.00 | 0.00 | 88 | 1009.0 |
| 20260831061534 | 73 | 251 | 0.0 | 0.0 | 0.00 | 0.00 | 0.00 | 88 | 1009.0 |
| 20260831060001 | 73 | 251 | 0.0 | 0.0 | 0.00 | 0.00 | 0.00 | 87 | 1009.0 |
| 20260831054501 | 72 | 251 | 0.0 | 0.0 | 0.00 | 0.00 | 0.00 | 87 | 1008.9 |
| 20260831053100 | 73 | 250 | 0.0 | 0.0 | 0.00 | 0.00 | 0.00 | 86 | 1008.9 |
| 20260831051530 | 73 | 251 | 0.0 | 0.0 | 0.00 | 0.00 | 0.00 | 86 | 1008.9 |
| 20260831050027 | 74 | 251 | 0.0 | 0.0 | 0.00 | 0.00 | 0.00 | 87 | 1008.9 |
| 20260831044525 | 74 | 251 | 0.0 | 0.0 | 0.00 | 0.00 | 0.00 | 87 | 1008.8 |
| 20260831043023 | 74 | 251 | 0.0 | 0.0 | 0.00 | 0.00 | 0.00 | 87 | 1008.6 |
| 20260831041528 | 74 | 251 | 0.0 | 0.0 | 0.00 | 0.00 | 0.00 | 87 | 1008.5 |
| 20260831040018 | 74 | 251 | 0.0 | 0.0 | 0.00 | 0.00 | 0.00 | 86 | 1008.4 |
| 20260831034548 | 74 | 251 | 0.0 | 0.0 | 0.00 | 0.00 | 0.00 | 86 | 1008.1 |
| 20260831033046 | 74 | 251 | 0.0 | 0.0 | 0.00 | 0.00 | 0.00 | 85 | 1007.9 |
| 20260831031517 | 74 | 251 | 0.0 | 0.0 | 0.00 | 0.00 | 0.00 | 84 | 1007.8 |
| 20260831030014 | 75 | 251 | 0.0 | 0.0 | 0.00 | 0.00 | 0.00 | 83 | 1007.7 |
| 20260831024507 | 75 | 251 | 0.0 | 0.0 | 0.00 | 0.00 | 0.00 | 82 | 1007.7 |
| 20260831023005 | 76 | 251 | 0.0 | 0.0 | 0.00 | 0.00 | 0.00 | 81 | 1007.6 |
| 20260831021505 | 77 | 251 | 0.0 | 0.0 | 0.00 | 0.00 | 0.00 | 79 | 1007.5 |
| 20260831020005 | 77 | 251 | 0.0 | 0.0 | 0.00 | 0.00 | 0.00 | 77 | 1007.5 |
| 20260831014501 | 78 | 252 | 0.0 | 0.0 | 0.00 | 0.00 | 0.00 | 77 | 1007.4 |
| 20260831013002 | 79 | 251 | 0.0 | 0.0 | 0.00 | 0.00 | 0.00 | 75 | 1007.5 |
| 20260831011500 | 79 | 251 | 0.0 | 0.0 | 0.00 | 0.00 | 0.00 | 75 | 1007.5 |
| 20260831010100 | 80 | 251 | 0.0 | 0.0 | 0.00 | 0.00 | 0.00 | 73 | 1007.4 |
| 20260831004559 | 80 | 248 | 0.0 | 0.0 | 0.00 | 0.00 | 0.00 | 73 | 1007.5 |
| 20260831003100 | 81 | 252 | 0.0 | 0.0 | 0.00 | 0.00 | 0.00 | 72 | 1007.5 |
| 20260831001556 | 82 | 254 | 0.0 | 0.0 | 0.00 | 0.00 | 0.00 | 71 | 1007.4 |
| 20260831000056 | 81 | 261 | 0.0 | 0.0 | 0.00 | 0.00 | 0.00 | 72 | 1007.6 |
| 20260830234604 | 82 | 252 | 0.0 | 0.0 | 0.00 | 0.00 | 0.00 | 72 | 1007.6 |
| 20260830233053 | 82 | 265 | 0.0 | 0.0 | 0.00 | 0.00 | 0.00 | 71 | 1007.8 |
| 20260830231553 | 82 | 250 | 0.0 | 0.0 | 0.00 | 0.00 | 0.00 | 71 | 1007.7 |
| 20260830230052 | 83 | 253 | 0.0 | 0.0 | 0.00 | 0.00 | 0.00 | 71 | 1007.8 |
| 20260830224554 | 83 | 263 | 0.0 | 0.0 | 0.00 | 0.00 | 0.00 | 70 | 1007.9 |
| 20260830223051 | 83 | 259 | 0.0 | 0.0 | 0.00 | 0.00 | 0.00 | 69 | 1007.9 |
| 20260830221550 | 82 | 255 | 0.0 | 0.0 | 0.00 | 0.00 | 0.00 | 70 | 1008.1 |
| 20260830220048 | 82 | 259 | 0.0 | 0.0 | 0.00 | 0.00 | 0.00 | 71 | 1008.3 |
| 20260830214545 | 82 | 233 | 0.0 | 0.0 | 0.00 | 0.00 | 0.00 | 72 | 1008.4 |
| 20260830213046 | 82 | 272 | 0.0 | 0.0 | 0.00 | 0.00 | 0.00 | 70 | 1008.4 |
| 20260830211544 | 82 | 248 | 0.0 | 0.0 | 0.00 | 0.00 | 0.00 | 68 | 1008.5 |
| 20260830210044 | 83 | 267 | 0.0 | 0.0 | 0.00 | 0.00 | 0.00 | 67 | 1008.8 |
| 20260830204542 | 82 | 306 | 0.0 | 0.0 | 0.00 | 0.00 | 0.00 | 68 | 1008.9 |
| 20260830203049 | 82 | 231 | 0.0 | 0.0 | 0.00 | 0.00 | 0.00 | 67 | 1009.0 |
| 20260830201546 | 81 | 260 | 0.0 | 0.0 | 0.00 | 0.00 | 0.00 | 70 | 1008.9 |
| 20260830200036 | 81 | 263 | 0.9 | 0.0 | 0.00 | 0.00 | 0.00 | 72 | 1008.9 |
| 20260830194505 | 81 | 271 | 0.0 | 0.0 | 0.00 | 0.00 | 0.00 | 72 | 1009.0 |
| 20260830193004 | 82 | 250 | 0.0 | 0.0 | 0.00 | 0.00 | 0.00 | 72 | 1009.1 |
| 20260830191603 | 81 | 257 | 0.0 | 0.0 | 0.00 | 0.00 | 0.00 | 73 | 1009.1 |
| 20260830190059 | 81 | 258 | 0.0 | 0.0 | 0.00 | 0.00 | 0.00 | 73 | 1009.3 |
| 20260830184555 | 82 | 250 | 0.0 | 0.0 | 0.00 | 0.00 | 0.00 | 73 | 1009.1 |
| 20260830183106 | 81 | 268 | 0.0 | 0.0 | 0.00 | 0.00 | 0.00 | 71 | 1009.2 |
| 20260830181555 | 81 | 260 | 0.0 | 0.0 | 0.00 | 0.00 | 0.00 | 72 | 1009.3 |
| 20260830180043 | 81 | 261 | 0.0 | 0.0 | 0.00 | 0.00 | 0.00 | 73 | 1009.3 |
| 20260830174538 | 81 | 255 | 0.0 | 0.0 | 0.00 | 0.00 | 0.00 | 74 | 1009.1 |
| 20260830173040 | 81 | 255 | 0.0 | 0.0 | 0.00 | 0.00 | 0.00 | 74 | 1008.9 |
| 20260830171529 | 80 | 255 | 0.0 | 0.0 | 0.00 | 0.00 | 0.00 | 75 | 1008.9 |
| 20260830170024 | 80 | 255 | 0.0 | 0.0 | 0.00 | 0.00 | 0.00 | 76 | 1008.8 |
| 20260830164531 | 80 | 255 | 0.0 | 0.0 | 0.00 | 0.00 | 0.00 | 78 | 1008.7 |
| 20260830163019 | 80 | 255 | 0.0 | 0.0 | 0.00 | 0.00 | 0.00 | 78 | 1008.7 |
| 20260830161614 | 79 | 255 | 0.0 | 0.0 | 0.00 | 0.00 | 0.00 | 79 | 1008.7 |
| 20260830160045 | 78 | 255 | 0.0 | 0.0 | 0.00 | 0.00 | 0.00 | 82 | 1008.8 |
| 20260830154542 | 76 | 255 | 0.0 | 0.0 | 0.00 | 0.00 | 0.00 | 84 | 1008.8 |
| 20260830153041 | 75 | 255 | 0.0 | 0.0 | 0.00 | 0.00 | 0.00 | 86 | 1008.8 |
| 20260830151540 | 74 | 255 | 0.0 | 0.0 | 0.00 | 0.00 | 0.00 | 87 | 1008.8 |
| 20260830150033 | 74 | 255 | 0.0 | 0.0 | 0.00 | 0.00 | 0.00 | 89 | 1008.8 |
| 20260830144527 | 73 | 255 | 0.0 | 0.0 | 0.00 | 0.00 | 0.00 | 89 | 1008.6 |
| 20260830143021 | 73 | 255 | 0.0 | 0.0 | 0.00 | 0.00 | 0.00 | 90 | 1008.8 |
| 20260830141519 | 73 | 255 | 0.0 | 0.0 | 0.00 | 0.00 | 0.00 | 90 | 1008.6 |
| 20260830140016 | 72 | 255 | 0.0 | 0.0 | 0.00 | 0.00 | 0.00 | 90 | 1008.4 |
| 20260830134515 | 72 | 255 | 0.0 | 0.0 | 0.00 | 0.00 | 0.00 | 89 | 1008.3 |
| 20260830133010 | 72 | 255 | 0.0 | 0.0 | 0.00 | 0.00 | 0.00 | 89 | 1008.1 |
| 20260830131510 | 72 | 255 | 0.0 | 0.0 | 0.00 | 0.00 | 0.00 | 89 | 1008.0 |
| 20260830130009 | 72 | 255 | 0.0 | 0.0 | 0.00 | 0.00 | 0.00 | 89 | 1008.0 |
| 20260830124513 | 72 | 255 | 0.0 | 0.0 | 0.00 | 0.00 | 0.00 | 88 | 1008.0 |
| 20260830123003 | 73 | 255 | 0.0 | 0.0 | 0.00 | 0.00 | 0.00 | 87 | 1007.9 |
| 20260830121600 | 74 | 255 | 0.0 | 0.0 | 0.00 | 0.00 | 0.00 | 88 | 1007.9 |
| 20260830120059 | 74 | 255 | 0.0 | 0.0 | 0.00 | 0.00 | 0.00 | 88 | 1007.9 |
| 20260830114617 | 74 | 255 | 0.0 | 0.0 | 0.00 | 0.00 | 0.00 | 88 | 1008.0 |
| 20260830113103 | 74 | 255 | 0.0 | 0.0 | 0.00 | 0.00 | 0.00 | 88 | 1007.9 |
| 20260830111555 | 74 | 254 | 0.0 | 0.0 | 0.00 | 0.00 | 0.00 | 88 | 1007.9 |
| 20260830110053 | 74 | 255 | 0.0 | 0.0 | 0.00 | 0.00 | 0.00 | 88 | 1007.9 |
| 20260830104559 | 74 | 255 | 0.0 | 0.0 | 0.00 | 0.00 | 0.00 | 88 | 1007.9 |
| 20260830103048 | 74 | 255 | 0.0 | 0.0 | 0.00 | 0.00 | 0.00 | 88 | 1007.8 |
| 20260830101550 | 74 | 255 | 0.0 | 0.0 | 0.00 | 0.00 | 0.00 | 88 | 1007.6 |
| 20260830100049 | 74 | 255 | 0.0 | 0.0 | 0.00 | 0.00 | 0.00 | 88 | 1007.6 |
| 20260830094553 | 74 | 255 | 0.0 | 0.0 | 0.00 | 0.00 | 0.00 | 88 | 1007.7 |
| 20260830093027 | 74 | 255 | 0.0 | 0.0 | 0.00 | 0.00 | 0.00 | 88 | 1007.7 |